Location: F?ge?el
(45.8833°N, 22.5833°E)
Time: 05:21:08
(UTC+00:00)

Cosmos 1725 Rocket - Pass Details

Date: 17 November 2025
Orbit: 962 x 989 km, 82.9° (Epoch: 04 December)

Event Time Altitude Azimuth Distance (km) Brightness Sun altitude
Rises 15:15:01 0° 184° (S) 3,664 7.4 -3.8°
Reaches altitude 10° 15:17:30 10° 184° (S) 2,724 6.7 -4.2°
Maximum altitude 15:23:46 86° 97° (E) 994 4.1 -5.2°
Drops below altitude 10° 15:30:07 10° 9° (N) 2,757 6.1 -6.2°
Sets 15:32:39 0° 10° (N) 3,711 6.7 -6.6°
